Weather History for Roanoke, VA

Change the Weather History Date:

Tuesday, June 10, 2014

  Actual Average Record
Temperature  
Mean Temperature 79 °F 72 °F  
Max Temperature 90 °F 82 °F 96 °F (1914)
Min Temperature 67 °F 61 °F 39 °F (1913)
Degree Days  
Heating Degree Days 0 0  
Month to date heating degree days 0 9  
Since 1 June heating degree days 0 9  
Since 1 July heating degree days 4366 4142  
Cooling Degree Days 14 7  
Month to date cooling degree days 76 61  
Year to date cooling degree days 225 177  
Since 1 June cooling degree days 76 61  
Growing Degree Days 28 (Base 50)    
Moisture  
Dew Point 64 °F    
Average Humidity 61    
Maximum Humidity 84    
Minimum Humidity 38    
Precipitation  
Precipitation 0.09 in 0.13 in 1.65 in (1995)
Month to date precipitation 1.08 1.37  
Year to date precipitation 16.68 18.07  
Snow  
Snow 0.00 in - - ()
Month to date snowfall 0.0  
Since 1 June snowfall 0.0  
Since 1 July snowfall 28.0  
Snow Depth 0.00 in    
Sea Level Pressure  
Sea Level Pressure 29.92 in    
Wind  
Wind Speed 5 mph (WSW)    
Max Wind Speed 20 mph    
Max Gust Speed 25 mph    
Visibility 10 miles    
Events      
T = Trace of Precipitation, MM = Missing Value Source: NWS Daily Summary

Daily Weather History Graph

Daily Weather History Graph

Search for Another Location

Airport:

Trip Planner

Search our weather history database for the weather conditions in past years. The results will help you decide how hot, cold, wet, or windy it might be!

Date:

Astronomy

Jun. 10, 2014 Rise Set
Actual Time 5:58 AM EDT 8:40 PM EDT
Civil Twilight 5:28 AM EDT 9:10 PM EDT
Nautical Twilight 4:49 AM EDT 9:49 PM EDT
Astronomical Twilight 4:06 AM EDT 10:32 PM EDT
Moon 6:06 PM EDT (6/10) 3:59 AM EDT (6/10)
Length of Visible Light 15h 42m
Length of Day
14h 41m
Waxing Gibbous, 92% of the Moon is Illuminated
Jun 10
Waxing Gibbous
Jun 13
Full
Jun 19
Last Quarter
Jun 27
New
Jul 5
First Quarter

Hourly Weather History & Observations

Time (EDT) Temp. Heat Index Dew Point Humidity Pressure Visibility Wind Dir Wind Speed Gust Speed Precip Events Conditions
12:54 AM 72.0 °F - 64.9 °F 78% 29.89 in 10.0 mi West 8.1 mph - N/A   Overcast
1:54 AM 72.0 °F - 64.0 °F 76% 29.90 in 10.0 mi SW 3.5 mph - N/A   Overcast
2:54 AM 70.0 °F - 64.0 °F 81% 29.90 in 10.0 mi West 4.6 mph - N/A   Partly Cloudy
3:54 AM 69.1 °F - 64.0 °F 84% 29.91 in 10.0 mi WSW 4.6 mph - N/A   Clear
4:54 AM 68.0 °F - 63.0 °F 84% 29.91 in 10.0 mi West 4.6 mph - N/A   Clear
5:54 AM 68.0 °F - 63.0 °F 84% 29.92 in 10.0 mi West 8.1 mph - N/A   Mostly Cloudy
6:54 AM 70.0 °F - 63.0 °F 78% 29.97 in 10.0 mi West 8.1 mph - N/A   Mostly Cloudy
7:54 AM 72.0 °F - 63.0 °F 73% 29.93 in 10.0 mi Variable 3.5 mph - N/A   Mostly Cloudy
8:54 AM 73.9 °F - 63.0 °F 68% 29.93 in 10.0 mi Calm Calm - N/A   Scattered Clouds
9:54 AM 78.1 °F - 63.0 °F 60% 29.92 in 10.0 mi East 4.6 mph - N/A   Scattered Clouds
10:54 AM 80.6 °F 82.3 °F 64.4 °F 58% 29.97 in 10.0 mi Calm Calm - N/A   Scattered Clouds
11:54 AM 82.0 °F 83.8 °F 64.9 °F 56% 29.94 in 10.0 mi Variable 4.6 mph - N/A   Scattered Clouds
12:54 PM 84.2 °F 85.0 °F 62.6 °F 48% 29.97 in 10.0 mi SW 9.2 mph - N/A   Mostly Cloudy
1:54 PM 88.0 °F 88.4 °F 62.1 °F 42% 29.92 in 10.0 mi West 11.5 mph - N/A   Mostly Cloudy
2:54 PM 86.0 °F 86.1 °F 60.8 °F 43% 29.95 in 10.0 mi SW 8.1 mph - N/A   Mostly Cloudy
3:54 PM 88.0 °F 87.6 °F 60.1 °F 39% 29.89 in 10.0 mi West 8.1 mph - N/A   Partly Cloudy
4:54 PM 89.6 °F 89.5 °F 60.8 °F 38% 29.93 in 10.0 mi West 8.1 mph - N/A   Scattered Clouds
5:54 PM 86.0 °F 87.6 °F 64.9 °F 49% 29.89 in 10.0 mi South 8.1 mph - N/A   Mostly Cloudy
6:54 PM 84.0 °F 86.3 °F 66.0 °F 55% 29.90 in 10.0 mi South 10.4 mph - N/A   Mostly Cloudy
7:54 PM 82.0 °F 84.1 °F 66.0 °F 58% 29.91 in 10.0 mi SW 4.6 mph - N/A   Mostly Cloudy
8:54 PM 80.1 °F 82.1 °F 66.0 °F 62% 29.91 in 10.0 mi Calm Calm - N/A   Scattered Clouds
9:54 PM 75.9 °F - 68.0 °F 76% 29.92 in 10.0 mi Calm Calm - N/A   Scattered Clouds
10:54 PM 75.0 °F - 66.9 °F 76% 29.97 in 10.0 mi Calm Calm - N/A   Mostly Cloudy
11:54 PM 75.2 °F - 66.2 °F 73% 29.96 in 10.0 mi West 11.5 mph - N/A   Mostly Cloudy